Change the Weather History Date:

Monday, December 9, 2013

  Actual Average Record
Temperature  
Mean Temperature 32 °F -  
Max Temperature 44 °F - - ()
Min Temperature 21 °F - - ()
Degree Days  
Heating Degree Days 32    
Moisture  
Dew Point 29 °F    
Average Humidity 90    
Maximum Humidity 100    
Minimum Humidity 66    
Precipitation  
Precipitation 0.00 in - - ()
Sea Level Pressure  
Sea Level Pressure 30.37 in    
Wind  
Wind Speed 2 mph ()    
Max Wind Speed 5 mph    
Max Gust Speed -    
Visibility 1.0 miles    
Events Fog    
T = Trace of Precipitation, MM = Missing Value Source: Averaged Metar Reports

Daily Weather History Graph

Daily Weather History Graph

Search for Another Location

Airport or City:

Trip Planner

Search our weather history database for the weather conditions in past years. The results will help you decide how hot, cold, wet, or windy it might be!

Date:

Astronomy

Dec. 09, 2013 Rise Set
Actual Time 8:34 AM CET 5:48 PM CET
Civil Twilight 8:03 AM CET 6:20 PM CET
Nautical Twilight 7:28 AM CET 6:55 PM CET
Astronomical Twilight 6:54 AM CET 7:28 PM CET
Moon 1:15 PM CET (12/9) 12:26 AM CET (12/9)
Length of Visible Light 10h 16m
Length of Day
9h 14m
Waxing Crescent, 48% of the Moon is Illuminated
Dec 9
Waxing Crescent
Dec 9
First Quarter
Dec 17
Full
Dec 25
Last Quarter
Jan 1
New

Hourly Weather History & Observations

Time (CET) Temp. Windchill Dew Point Humidity Pressure Visibility Wind Dir Wind Speed Gust Speed Precip Events Conditions
7:00 AM 23.0 °F - 23.0 °F 100% 30.33 in 0.2 mi East 2.3 mph - N/A Fog Light Freezing Fog
7:30 AM 21.2 °F 16.4 °F 21.2 °F 100% 30.33 in 1.9 mi East 3.5 mph - N/A   Partly Cloudy
8:00 AM 23.0 °F 18.4 °F 23.0 °F 100% 30.33 in 0.1 mi ESE 3.5 mph - N/A Fog Light Freezing Fog
8:30 AM 23.0 °F - 23.0 °F 100% 30.36 in 0.1 mi Variable 2.3 mph - N/A Fog Light Freezing Fog
9:00 AM 21.2 °F - 21.2 °F 100% 30.36 in 0.1 mi Variable 2.3 mph - N/A Fog Light Freezing Fog
9:30 AM 23.0 °F - 23.0 °F 100% 30.36 in 0.6 mi East 2.3 mph - N/A Fog Light Freezing Fog
10:00 AM 24.8 °F - 24.8 °F 100% 30.39 in 3.1 mi Variable 1.2 mph - N/A   Partly Cloudy
10:30 AM 26.6 °F - 26.6 °F 100% 30.39 in 3.1 mi Variable 1.2 mph - N/A   Partly Cloudy
11:00 AM 26.6 °F - 26.6 °F 100% 30.39 in 0.5 mi Variable 1.2 mph - N/A Fog Light Freezing Fog
11:30 AM 30.2 °F - 30.2 °F 100% 30.39 in 0.3 mi Calm Calm - N/A Fog Light Freezing Fog
12:00 PM 32.0 °F - 32.0 °F 100% 30.39 in 1.9 mi Calm Calm - N/A   Scattered Clouds
12:30 PM 32.0 °F - 32.0 °F 100% 30.39 in 0.6 mi Calm Calm - N/A Fog Patches of Fog
1:00 PM 35.6 °F - 35.6 °F 100% 30.39 in - Calm Calm - N/A   Clear
1:30 PM 37.4 °F - 37.4 °F 100% 30.36 in - Calm Calm - N/A   Clear
2:00 PM 41.0 °F - 37.4 °F 87% 30.36 in - SE 1.2 mph - N/A   Clear
2:30 PM 41.0 °F - 35.6 °F 81% 30.36 in - Variable 1.2 mph - N/A   Clear
3:00 PM 42.8 °F - 35.6 °F 76% 30.36 in - Variable 2.3 mph - N/A   Clear
3:30 PM 44.6 °F - 37.4 °F 76% 30.36 in - ESE 1.2 mph - N/A   Clear
4:00 PM 44.6 °F - 33.8 °F 66% 30.36 in - Variable 1.2 mph - N/A   Clear
4:30 PM 44.6 °F - 33.8 °F 66% 30.36 in - Variable 1.2 mph - N/A   Clear
5:00 PM 42.8 °F - 32.0 °F 66% 30.36 in - Variable 1.2 mph - N/A   Clear
5:30 PM 39.2 °F 37.0 °F 30.2 °F 70% 30.36 in - ESE 3.5 mph - N/A   Clear
6:00 PM 35.6 °F - 30.2 °F 81% 30.36 in - South 1.2 mph - N/A   Clear
6:30 PM 37.4 °F - 32.0 °F 81% 30.36 in - West 1.2 mph - N/A   Clear
7:00 PM 32.0 °F - 28.4 °F 87% 30.36 in - WNW 1.2 mph - N/A   Clear
7:30 PM 30.2 °F - 30.2 °F 100% 30.39 in - Variable 2.3 mph - N/A   Clear
8:00 PM 30.2 °F - 26.6 °F 86% 30.39 in - NE 2.3 mph - N/A   Clear
8:30 PM 30.2 °F - 28.4 °F 93% 30.39 in - ENE 2.3 mph - N/A   Clear
9:00 PM 28.4 °F 23.3 °F 26.6 °F 93% 30.39 in - ESE 4.6 mph - N/A   Clear
9:30 PM 30.2 °F - 26.6 °F 86% 30.39 in - SE 2.3 mph - N/A   Clear